Regional Weather Roundup
Issued by NWS Midland/Odessa, TX

Skip options and go directly to product.
Home | Oldest Version | Next Version | Current Version | All | Text Only | Save Text | Print | Product List | Glossary On

Skip product version selection by date and time.   
116
ASUS44 KMAF 292002
RWRMAF
MIDLAND AREA WEATHER ROUNDUP
NATIONAL WEATHER SERVICE MIDLAND TX
300 PM CDT FRI AUG 29 2014

...IN SOUTHWEST TEXAS AND SOUTHEAST NEW MEXICO...

CITY           SKY/WX    TMP DP  RH WIND       PRES   REMARKS
ALPINE         PTSUNNY   87  45  22 NE7G17    30.11F
ANDREWS        PTSUNNY   85  64  49 E8G16     30.00F
ARTESIA        NOT AVBL
BIG SPRING     MOSUNNY   86  67  53 NW5       29.97F
CARLSBAD       SUNNY     91  56  30 N13       29.98F
DRYDEN           N/A     97  62  31 MISG      29.88F
FORT STOCKTON  SUNNY     91  56  30 NW8G17    29.95F
GUAD PASS      PTSUNNY   83  44  25 E20       30.14F
HOBBS          SUNNY     84  57  39 VRB7      30.03F
MARFA          MOSUNNY   88  45  22 N13G21    30.10S
MIDLAND AIRPK  NOT AVBL
MIDLAND INTL   MOSUNNY   92  63  38 VRB3      29.95F
ODESSA         MOSUNNY   90  62  39 MISG      29.96F
PECOS          SUNNY     92  53  26 NE5       29.93F
PRESIDIO       FAIR      97  52  21 SW6       29.90F
SEMINOLE       MOSUNNY   87  60  41 E7        30.02F
SNYDER         PTSUNNY   83  68  60 E5        29.96F
WINK           MOSUNNY   95  58  28 VRB6      29.92F
$$
...OTHER STATIONS IN TEXAS...

CITY           SKY/WX    TMP DP  RH WIND       PRES   REMARKS
ABILENE        MOSUNNY   88  68  51 CALM      29.92F
AMARILLO       SUNNY     89  42  19 NW15G23   30.01F
AUSTIN         PTSUNNY   94  70  45 NE9       29.83F HX 100
BROWNSVILLE    CLOUDY    88  81  79 E12       29.78F HX 106
CORPUS CHRISTI CLOUDY    87  75  67 SE10      29.82F
DALLAS FTW     MOSUNNY   90  67  46 CALM      29.87F
DEL RIO        MOSUNNY   94  68  42 VRB7G17   29.82F
EL PASO        MOSUNNY   91  45  20 CALM      30.01F
HOUSTON INT    PTSUNNY   84  75  74 SE9       29.88F
LUBBOCK        MOSUNNY   87  63  44 E7        30.00F
SAN ANGELO     PTSUNNY   92  62  36 S5        29.90F
SAN ANTONIO    PTSUNNY   96  64  34 E8        29.84F
WACO           SUNNY     92  70  48 CALM      29.86F
WICHITA FALLS  NOT AVBL
$$
...OTHER LOCATIONS IN NEW MEXICO...

CITY           SKY/WX    TMP DP  RH WIND       PRES   REMARKS
ALAMAGORDO     SUNNY     91  37  15 NW8G16    30.04F
ALBUQUERQUE    MOSUNNY   81  43  26 SW6       30.15F
CANNON AFB     SUNNY     86  40  20 NW1       30.06F
CLOVIS           N/A     88  39  18 E6G17     30.07F
HOLLOMAN AFB   SUNNY     90  39  16 VRB6      30.02F
ROSWELL        SUNNY     87  53  31 SE7       30.03F
RUIDOSO        SUNNY     73  46  38 S10       30.26S
SANTA FE       SUNNY     77  39  25 VRB3      30.20F
TRUTH OR CONSE SUNNY     87  42  20 E8        30.09F
TUCUMCARI      SUNNY     89  29  11 VRB6      30.04F
$$

USA.gov is the U.S. government's official web portal to all federal, state and local government web resources and services.